www.pogodaiklimat.ru

Архив погоды в Ресистенсии (Аргентина)

Время
(UTC), дата
10 6.04
11 6.04
12 6.04
13 6.04
14 6.04
15 6.04
16 6.04
17 6.04
18 6.04
19 6.04
20 6.04
21 6.04
22 6.04
23 6.04
00 7.04
01 7.04
02 7.04
03 7.04
04 7.04
05 7.04
06 7.04
07 7.04
08 7.04
09 7.04
10 7.04
11 7.04
12 7.04
13 7.04
14 7.04
15 7.04
16 7.04
17 7.04
18 7.04
19 7.04
20 7.04
21 7.04
22 7.04
23 7.04
00 8.04
01 8.04
02 8.04
03 8.04
04 8.04
05 8.04
06 8.04
07 8.04
08 8.04
09 8.04
10 8.04
11 8.04
12 8.04
13 8.04
14 8.04
15 8.04
16 8.04
17 8.04
18 8.04
19 8.04
20 8.04
21 8.04
22 8.04
23 8.04
00 9.04
01 9.04
02 9.04
03 9.04
04 9.04
05 9.04
06 9.04
07 9.04
08 9.04
09 9.04
10 9.04
11 9.04
12 9.04
13 9.04
14 9.04
15 9.04
16 9.04
17 9.04
18 9.04
19 9.04
20 9.04
21 9.04
22 9.04
23 9.04
00 10.04
01 10.04
02 10.04
03 10.04
04 10.04
05 10.04
06 10.04
07 10.04
08 10.04
09 10.04
10 10.04
11 10.04
12 10.04
13 10.04
14 10.04
15 10.04
16 10.04
17 10.04
18 10.04
19 10.04
20 10.04
21 10.04
22 10.04
23 10.04
00 11.04
01 11.04
02 11.04
03 11.04
04 11.04
05 11.04
06 11.04
07 11.04
08 11.04
09 11.04
10 11.04
11 11.04
12 11.04
13 11.04
14 11.04
15 11.04
16 11.04
17 11.04
18 11.04
19 11.04
20 11.04
21 11.04
22 11.04
23 11.04
00 12.04
01 12.04
02 12.04
03 12.04
04 12.04
05 12.04
06 12.04
07 12.04
08 12.04
09 12.04
11 12.04
12 12.04
13 12.04
14 12.04
15 12.04
16 12.04
17 12.04
18 12.04
19 12.04
20 12.04
21 12.04
22 12.04
23 12.04
00 13.04
01 13.04
02 13.04
03 13.04
04 13.04
05 13.04
06 13.04
07 13.04
08 13.04
Ветер
(напр.,м/с)
Видим. Явления Облачность Т
(С)
Тd
(С)
f
(%)
Тe
(С)
Тes
(С)
Комфортность P
(гПа)
Po
(гПа)
Тmin
(С)
Tmax
(С)
R
(мм)
R24
(мм)
S
(см)
ЮВ 2 15 км 4/0
[Ac As]
+22.3 +20.0 87 +28 +28 душно 1012.6 1006.6
ЮВ 2 15 км 3/0
[Ac trans]
+22.2 +19.7 86 +28 +29 душно 1012.8 1006.8
В 3 15 км 3/0
[Ac trans]
+23.9 +19.1 75 +29 +31 душно 1012.4 1006.4 +22.2 +26.8 0.3
В 4 15 км 4/1 450 м
[St Ac trans]
+25.9 +21.8 78 +33 +37 очень душно 1012.0 1006.0
В 3 15 км 3/1 500 м
[St Ac trans]
+28.0 +22.8 73 +37 +45 очень душно 1011.6 1005.7
В 3 15 км 4/4 600 м
[Sc]
+28.5 +23.2 73 +38 +46 очень душно 1010.8 1004.9
В 3 15 км 8/8 720 м
[Sc]
+29.5 +23.6 71 +40 +43 очень душно 1010.4 1004.5
В 3 15 км 8/8 750 м
[Sc]
+30.4 +23.7 67 +41 +44 очень душно 1009.0 1003.0
В 2 15 км 8/8 900 м
[Sc]
+30.6 +23.6 66 +41 +44 очень душно 1008.3 1002.4
В 2 15 км 8/8 800 м
[Sc]
+30.3 +23.7 68 +41 +43 очень душно 1006.7 1000.8
В 1 7000 м гроза, ливневой дождь 9/5 1050 м
[Cb cap As op]
+28.5 +25.6 84 +42 +43 очень душно 1007.2 1001.2
В 4 7000 м гроза, ливневой дождь 9/6 150 м
[Cb cap As op]
+26.5 +25.2 93 +38 +38 очень душно 1008.2 1002.2
В 2 15 км в посл. час гроза 8/5 600 м
[Cb cap As op]
+24.0 +22.1 89 +31 +31 очень душно 1007.7 1001.7
В 1 15 км гроза без осадков 9/5 750 м
[Cb cap As op]
+24.4 +22.5 89 +32 +32 очень душно 1007.8 1001.8
Ю 2 10 км гроза, ливневой дождь 10/5 1050 м
[Cb cap As op]
+24.8 +23.5 92 +33 +33 очень душно 1008.8 1002.8 +23.9 +30.8 15
Ю 4 15 км гроза без осадков 6/4 1200 м
[Cb cap Ac As]
+24.8 +23.5 92 +33 +33 очень душно 1009.5 1003.4
Ю 2 5000 м гроза, ливневой дождь 10/4 120 м
[Cb cap As op]
+23.5 +22.6 95 +31 +31 очень душно 1010.8 1004.8
ЮВ 2 8000 м гроза, ливневой дождь 10/6 180 м
[Cb cap As op]
+22.6 +21.7 95 +30 +30 очень душно 1010.8 1004.8
Ю 3 5000 м гроза, ливневой дождь 10/6 240 м
[Cb cap As op]
+20.9 +19.3 91 +26 +26 душно 1011.0 1005.0
Ю 3 5000 м гроза, ливневой дождь 10/6 120 м
[Cb cap As op]
+20.5 +19.6 95 +25 +25 комфорт 1011.5 1005.4
Ю 4 8000 м гроза, ливневой дождь 10/6 150 м
[Cb cap As op]
+20.2 +19.4 95 +24 +24 комфорт 1011.1 1005.0 39
З 8 800 м сильн. гроза, ливневой дождь 10/10 90 м
[Cb cap]
+19.1 +18.5 96 +20 +20 1012.3 1006.2
Ю 2 5000 м гроза, ливневой дождь 10/6 90 м
[Cb cap As op]
+19.7 +19.2 97 +23 +23 комфорт 1009.9 1003.8
В 2 15 км в посл. час гроза 6/5 120 м
[St Ac trans]
+19.9 +19.1 95 +24 +24 комфорт 1009.1 1003.0
З 1 15 км {гроза} 10/10 150 м
[St]
+19.8 +19.0 95 +24 +24 комфорт 1010.7 1004.6
ЮЗ 1 7000 м слаб. дождь 10/10 150 м
[St]
+20.1 +19.6 97 +25 +25 комфорт 1011.4 1005.4
Ю 3 8000 м слаб. дождь {гроза} 10/10 180 м
[St]
+20.3 +19.5 95 +24 +24 комфорт 1011.9 1005.8 +19.1 +25.2 22
Ю 3 15 км в посл. час дождь 10/10 210 м
[St]
+21.0 +19.1 89 +26 +26 душно 1012.5 1006.5
Ю 3 15 км {дождь} 10/10 210 м
[St]
+21.2 +19.5 90 +26 +26 душно 1012.9 1006.8
Ю 4 15 км {дождь} 10/10 270 м
[St]
+21.6 +19.6 88 +27 +27 душно 1013.1 1007.0
Ю 3 15 км 10/10 300 м
[St]
+21.4 +19.1 87 +26 +26 душно 1013.0 1006.9
ЮВ 3 5000 м слаб. морось 10/10 180 м
[St]
+21.2 +19.7 91 +26 +26 душно 1012.2 1006.1
Ю 4 15 км в посл. час морось {дождь} 10/10 210 м
[St]
+21.0 +19.6 92 +26 +26 душно 1011.3 1005.2 0.0
Ю 3 15 км {морось} 10/10 270 м
[St]
+21.7 +19.7 88 +27 +27 душно 1011.4 1005.3
Ю 2 15 км 10/10 300 м
[St]
+21.4 +19.5 89 +26 +26 душно 1011.9 1005.8
Ю 2 7000 м слаб. морось 10/10 400 м
[Frnb]
+21.3 +19.9 92 +26 +26 душно 1012.0 1005.8
Ю 2 3000 м морось туман 10/10 600 м
[Frnb]
+20.8 +19.9 95 +26 +26 душно 1012.3 1006.2
Ю 2 9000 м слаб. морось 10/10 750 м
[Sc]
+20.6 +20.0 96 +26 +26 душно 1012.6 1006.5
ЮЗ 1 9000 м слаб. морось 10/10 800 м
[Sc]
+21.0 +20.1 95 +27 +27 душно 1013.1 1007.0 +20.2 +21.6 0.6
ЮЗ 1 15 км в посл. час морось 10/10 750 м
[Sc]
+21.2 +19.8 92 +26 +26 душно 1013.6 1007.4
Ю 1 15 км {морось} 10/10 570 м
[Frnb]
+21.3 +20.4 95 +27 +27 душно 1013.6 1007.4
Ю 2 15 км {морось} 10/10 360 м
[Frnb]
+21.5 +20.4 93 +27 +27 душно 1013.3 1007.2
Ю 2 15 км 10/10 360 м
[Frnb]
+21.3 +19.9 92 +26 +26 душно 1013.4 1007.3
Ю 1 15 км 10/10 800 м
[Sc]
+21.3 +19.9 92 +26 +26 душно 1013.2 1007.0
Ю 2 15 км {морось} 10/10 800 м
[Sc]
+21.1 +19.9 93 +26 +26 душно 1012.8 1006.6 0.0
Ю 2 15 км 10/10 800 м
[Sc]
+20.9 +19.7 93 +26 +26 душно 1012.7 1006.6
Ю 1 15 км 10/10 800 м
[Sc]
+20.8 +19.7 93 +26 +26 душно 1012.3 1006.2
Ю 2 15 км 10/10 270 м
[Frnb]
+21.1 +20.5 96 +26 +26 душно 1012.4 1006.2
ЮВ 1 15 км 10/10 240 м
[Frnb]
+20.9 +20.1 95 +27 +27 душно 1012.7 1006.6
Ю 2 15 км 9/6 240 м
[Frnb Ac As Cs]
+21.2 +20.4 95 +26 +26 душно 1012.8 1006.6
Ю 2 15 км 9/6 270 м
[Frnb Ac As Cs]
+22.2 +20.2 88 +28 +29 душно 1013.0 1006.9 +20.7 +22.6 0.6
В 2 15 км 8/8 400 м
[Sc]
+23.0 +19.9 83 +30 +31 очень душно 1013.2 1007.0
СВ 2 15 км 9/9 420 м
[Sc]
+23.2 +20.1 83 +30 +31 очень душно 1013.0 1006.9
В 1 15 км 10/10 400 м
[Sc]
+23.6 +20.3 82 +29 +29 душно 1012.6 1006.5
В 1 15 км 10/10 420 м
[Sc]
+24.5 +20.7 79 +30 +30 очень душно 1011.8 1005.8
В 1 15 км 10/10 500 м
[Sc]
+25.2 +20.5 75 +31 +31 очень душно 1011.0 1005.0
С 1 15 км 10/10 600 м
[Sc]
+25.6 +21.1 76 +32 +32 очень душно 1010.4 1004.4
С 2 15 км 10/10 660 м
[Sc]
+25.4 +20.9 76 +32 +32 очень душно 1010.1 1004.1
В 1 15 км 9/9 630 м
[Sc]
+26.3 +21.4 74 +33 +34 очень душно 1009.6 1003.6
В 1 15 км 4/4 930 м
[Sc]
+26.2 +21.3 74 +33 +33 очень душно 1009.1 1003.0
СЗ 1 15 км 1/0
[Ac As]
+24.6 +21.5 83 +31 +31 очень душно 1009.0 1003.0
В 1 15 км ясно +23.2 +21.6 91 +31 +31 очень душно 1009.4 1003.4
В 1 15 км ясно +22.2 +21.1 93 +29 +29 очень душно 1009.7 1003.7 +22.2 +26.7
СВ 1 8000 м дымка ясно +21.6 +20.5 93 +27 +27 душно 1010.2 1004.2
ЮВ 1 8000 м дымка ясно +21.2 +20.7 97 +26 +26 душно 1010.4 1004.4
В 1 7000 м дымка 3/0
[Ac und]
+21.2 +20.4 95 +26 +26 душно 1010.6 1004.6
В 1 8000 м 1/0
[Ac und]
+21.8 +21.0 95 +28 +28 душно 1010.9 1004.9
В 1 300 м 3/1 1260 м
[Sc Ac und]
+22.0 +21.2 95 +28 +28 душно 1010.9 1004.9
ЮВ 1 15 км 1/0
[Ac und]
+21.8 +21.0 95 +28 +28 душно 1010.8 1004.8
Ю 1 15 км 5/0
[Ac und]
+21.4 +20.6 95 +27 +27 душно 1010.7 1004.6
Ю 1 15 км 8/0
[Ac und]
+21.4 +20.6 95 +27 +27 душно 1011.0 1005.0
Ю 1 15 км 9/0
[Ac As]
+22.0 +21.2 95 +28 +28 душно 1011.7 1005.7
ЮВ 2 15 км 10/10 1170 м
[Sc]
+22.2 +21.4 95 +29 +29 очень душно 1012.4 1006.4
Ю 2 15 км 9/5 1320 м
[Sc Ac As]
+22.4 +21.7 96 +30 +30 очень душно 1013.0 1007.0
ЮВ 2 15 км 6/0
[Ac As]
+22.7 +22.3 98 +31 +33 очень душно 1013.8 1007.7 +20.6 +24.2
ЮВ 2 15 км 5/1 600 м
[Cu hum Ac cast]
+26.3 +22.7 81 +35 +39 очень душно 1013.8 1007.8
Ю 2 15 км 9/1 600 м
[Cu hum Ac As]
+26.7 +22.9 80 +36 +39 очень душно 1013.9 1007.8
ЮВ 1 15 км 10/1 600 м
[Cu hum Ac As]
+26.3 +23.1 83 +35 +40 очень душно 1013.7 1007.7
Ю 1 15 км 9/4 500 м
[Cu hum Ac As]
+26.9 +23.6 82 +37 +41 очень душно 1013.2 1007.2
Ю 1 15 км 10/3 600 м
[Cu hum Ac As]
+27.6 +23.7 79 +38 +41 очень душно 1012.2 1006.2
Ю 1 15 км 10/4 750 м
[Cu hum Ac As]
+28.4 +24.0 77 +39 +41 очень душно 1011.4 1005.4
Ю 2 15 км 10/5 800 м
[Cu hum Ac As]
+28.4 +24.1 78 +40 +41 очень душно 1010.8 1004.8
Ю 2 15 км 10/6 840 м
[Sc Ac As]
+28.0 +24.2 80 +39 +39 очень душно 1010.6 1004.6
Ю 2 15 км 9/4 900 м
[Sc Ac As]
+27.5 +23.8 80 +38 +38 очень душно 1010.3 1004.2
Ю 2 15 км 9/4 1200 м
[Sc Ac As]
+26.6 +23.9 85 +37 +37 очень душно 1010.3 1004.2
Ю 2 15 км 9/3 1350 м
[Sc Ac As]
+26.0 +23.8 88 +36 +36 очень душно 1010.6 1004.6
Ю 3 15 км 6/0
[Ac As]
+25.2 +23.3 89 +34 +34 очень душно 1010.9 1004.9 +22.7 +28.6
ЮВ 3 15 км ясно +25.0 +22.5 86 +33 +33 очень душно 1011.5 1005.4
ЮВ 2 15 км 4/0
[Ac trans]
+24.6 +21.5 83 +31 +31 очень душно 1011.4 1005.4
ЮВ 2 15 км 4/0
[Ac trans]
+23.8 +20.6 82 +30 +30 очень душно 1011.4 1005.4
ЮВ 2 15 км 6/0
[Ac und]
+23.8 +20.1 80 +29 +29 душно 1012.0 1006.0
Ю 2 15 км 6/0
[Ac und]
+23.5 +19.5 78 +29 +29 душно 1011.6 1005.6
ЮВ 2 15 км 6/0
[Ac As]
+23.3 +19.3 78 +30 +30 очень душно 1011.5 1005.4
ЮВ 1 10 км слаб. дождь 10/4 800 м
[Sc As op]
+22.0 +20.0 88 +28 +28 душно 1011.0 1005.0
Ю 3 15 км в посл. час дождь 9/4 1110 м
[Sc Ac As]
+21.8 +19.8 88 +27 +27 душно 1010.5 1004.5
ЮВ 2 10 км слаб. дождь 8/6 840 м
[Sc Ac As]
+21.8 +19.2 85 +27 +27 душно 1010.2 1004.2
ЮВ 2 15 км в посл. час дождь 10/5 840 м
[Sc As op]
+21.9 +19.1 84 +27 +27 душно 1010.6 1004.6
ЮВ 2 15 км {дождь} 8/3 840 м
[Sc As op]
+22.2 +18.9 82 +28 +28 душно 1010.6 1004.6
ЮВ 1 15 км {дождь} 9/5 930 м
[Sc As op]
+21.8 +19.5 87 +27 +28 душно 1012.0 1006.0 +21.5 +25.9 2
ЮВ 2 15 км 8/5 1000 м
[Sc As op]
+24.0 +20.2 79 +30 +31 очень душно 1011.7 1005.7
ЮВ 2 15 км 9/1 450 м
[St Ac As]
+25.6 +21.3 77 +32 +36 очень душно 1011.6 1005.6
ЮВ 3 15 км 9/9 450 м
[Sc]
+26.4 +22.4 79 +35 +36 очень душно 1010.5 1004.5
ЮВ 2 15 км гроза без осадков 10/10 480 м
[Cb cap]
+25.8 +22.3 81 +34 +34 очень душно 1010.0 1004.0
В 2 1600 м гроза, ливневой дождь 10/9 400 м
[Cb cap As op]
+24.4 +22.9 91 +32 +33 очень душно 1010.4 1004.4
ЮВ 2 1600 м гроза, ливневой дождь 10/9 180 м
[Cb cap As op]
+23.8 +23.2 96 +32 +32 очень душно 1008.2 1002.2 19
Ю 2 600 м гроза, ливневой дождь 10/9 150 м
[Cb cap As op]
+22.8 +22.1 96 +31 +31 очень душно 1009.2 1003.2
ЮЗ 4 600 м ливневой дождь, в посл. час гроза 10/9 120 м
[St As op]
+21.8 +21.3 97 +28 +28 душно 1009.8 1003.8
Ю 5 400 м сильн. дождь {гроза} 10/9 120 м
[St As op]
+21.8 +21.2 96 +28 +28 душно 1009.6 1003.6
Ю 5 3000 м дождь 10/9 150 м
[St As op]
+22.2 +21.8 98 +29 +29 очень душно 1009.7 1003.7
Ю 6 8000 м слаб. дождь 10/9 210 м
[St As op]
+22.7 +22.1 96 +31 +31 очень душно 1010.2 1004.2
Ю 6 10 км слаб. дождь {гроза} 10/9 300 м
[St As op]
+21.9 +21.0 95 +28 +28 душно 1011.8 1005.7 +21.8 +26.8 78
Ю 6 15 км в посл. час дождь 10/10 330 м
[St]
+22.1 +20.9 93 +29 +29 очень душно 1012.5 1006.5
Ю 6 15 км {дождь} 10/10 360 м
[St]
+22.4 +20.9 91 +29 +29 очень душно 1013.1 1007.0
Ю 6 15 км {дождь} 10/10 300 м
[St]
+22.1 +20.9 93 +29 +29 очень душно 1013.4 1007.4
Ю 5 15 км 10/10 420 м
[St]
+21.8 +20.6 93 +28 +28 душно 1013.5 1007.4
Ю 4 15 км 10/10 360 м
[St]
+21.0 +19.0 88 +26 +26 душно 1012.9 1006.9
Ю 5 15 км {дождь} 10/10 400 м
[St]
+20.9 +19.0 89 +25 +25 комфорт 1013.2 1007.0 0.8
Ю 5 15 км 10/10 300 м
[St]
+20.4 +18.0 86 +24 +24 комфорт 1013.1 1007.0
Ю 4 15 км 10/10 240 м
[St]
+20.0 +18.6 92 +23 +23 комфорт 1013.1 1007.0
Ю 5 7000 м слаб. морось 10/10 150 м
[St]
+20.2 +19.4 95 +24 +24 комфорт 1013.5 1007.4
Ю 3 7000 м слаб. морось 10/10 150 м
[St]
+20.2 +19.7 97 +24 +24 комфорт 1014.0 1007.8
Ю 5 3000 м морось 10/10 180 м
[St]
+20.0 +19.8 99 +23 +23 комфорт 1014.5 1008.4
Ю 5 4000 м слаб. морось 10/10 180 м
[St]
+19.4 +18.9 97 +22 +22 комфорт 1015.1 1009.0 +19.5 +22.6 0.5
Ю 5 3000 м слаб. морось 10/10 150 м
[St]
+19.4 +18.9 97 +22 +22 комфорт 1015.6 1009.4
Ю 4 5000 м слаб. морось 10/10 150 м
[St]
+19.8 +19.0 95 +23 +23 комфорт 1015.9 1009.8
ЮВ 3 8000 м слаб. морось 10/10 240 м
[St]
+20.3 +19.0 92 +24 +24 комфорт 1015.6 1009.4
ЮВ 3 15 км в посл. час морось 10/10 270 м
[St]
+21.2 +19.8 92 +26 +26 душно 1015.2 1009.0
ЮВ 2 15 км {морось} 10/10 300 м
[St]
+22.2 +20.5 90 +29 +29 очень душно 1014.7 1008.6
ЮВ 2 15 км {морось} 10/10 400 м
[St]
+22.3 +20.8 91 +29 +29 очень душно 1014.2 1008.1 0.3
Ю 3 7000 м слаб. морось 10/10 400 м
[St]
+21.7 +20.8 95 +28 +28 душно 1013.9 1007.8
Ю 3 6000 м слаб. морось 10/10 210 м
[St]
+21.8 +21.0 95 +28 +28 душно 1013.7 1007.6
Ю 4 2000 м слаб. морось 10/10 210 м
[St]
+21.3 +20.8 97 +27 +27 душно 1013.9 1007.8
ЮВ 5 1500 м морось 10/10 150 м
[Frnb]
+21.0 +20.5 97 +26 +26 душно 1014.0 1007.8
Ю 3 8000 м слаб. морось 10/10 210 м
[Frnb]
+21.0 +20.5 97 +27 +27 душно 1014.3 1008.2
ЮВ 3 15 км в посл. час морось 10/10 210 м
[Frnb]
+20.6 +19.8 95 +25 +25 комфорт 1015.3 1009.2 +19.4 +22.5 0.7
Ю 4 8000 м слаб. морось 10/10 180 м
[Frnb]
+20.0 +19.1 95 +23 +23 комфорт 1015.5 1009.4
ЮВ 3 10 км слаб. морось 10/10 240 м
[Frnb]
+20.0 +18.9 93 +24 +24 комфорт 1015.9 1009.8
ЮВ 2 10 км слаб. морось 10/10 240 м
[Frnb]
+19.8 +18.7 93 +23 +23 комфорт 1015.7 1009.6
ЮВ 2 15 км в посл. час морось 10/10 210 м
[St]
+19.8 +18.7 93 +23 +23 комфорт 1015.3 1009.2
ЮВ 2 15 км {морось} 10/10 240 м
[St]
+19.8 +18.7 93 +23 +23 комфорт 1015.4 1009.3
ЮВ 2 15 км {морось} 10/10 240 м
[St]
+20.0 +18.3 90 +24 +24 комфорт 1015.0 1008.9 0.0
ЮВ 2 15 км 10/10 210 м
[St]
+20.0 +17.9 88 +24 +24 комфорт 1014.7 1008.6
ЮВ 2 15 км 10/10 300 м
[St]
+19.8 +18.0 89 +23 +23 комфорт 1014.6 1008.5
ЮВ 2 15 км 10/10 300 м
[St]
+19.8 +17.9 89 +23 +23 комфорт 1014.7 1008.6
ЮВ 3 15 км в посл. час дождь 10/10 270 м
[St]
+19.2 +17.9 92 +21 +21 комфорт 1014.0 1007.8
ЮВ 2 15 км {дождь} 10/10 300 м
[St]
+20.0 +18.1 89 +24 +24 комфорт 1014.6 1008.5 +19.1 +20.8 0.3
ЮВ 3 15 км 10/10 300 м
[St]
+20.7 +17.7 83 +25 +25 комфорт 1014.4 1008.2
В 2 15 км 10/10 360 м
[St]
+21.9 +17.6 77 +26 +26 душно 1014.6 1008.5
ЮВ 1 7000 м слаб. дождь 10/10 400 м
[St]
+22.6 +20.0 85 +29 +29 очень душно 1014.4 1008.2
ЮВ 2 15 км в посл. час дождь 10/10 420 м
[St]
+23.7 +19.9 79 +29 +29 душно 1013.4 1007.3
ЮВ 2 15 км {дождь} 9/9 450 м
[Sc]
+24.5 +20.2 77 +30 +32 очень душно 1012.3 1006.2
ЮВ 2 15 км {дождь} 10/10 450 м
[Sc]
+25.1 +21.5 80 +32 +32 очень душно 1011.9 1005.8 0.4
ЮВ 2 15 км 10/10 450 м
[Sc]
+24.6 +21.0 80 +31 +31 очень душно 1011.4 1005.4
ЮВ 1 15 км 10/10 450 м
[Sc]
+24.3 +21.5 84 +31 +31 очень душно 1011.0 1004.9
СЗ 1 15 км слаб. дождь 10/10 480 м
[Sc]
+24.0 +22.4 91 +31 +31 очень душно 1010.8 1004.6
Ю 3 7000 м слаб. дождь 10/10 450 м
[Sc]
+23.4 +22.7 96 +33 +33 очень душно 1010.5 1004.4
Ю 2 6000 м слаб. дождь 10/10 150 м
[St]
+23.0 +22.3 96 +31 +31 очень душно 1011.0 1004.9
Ю 1 6000 м в посл. час дождь 10/10 150 м
[St]
+22.8 +22.2 96 +31 +31 очень душно 1011.4 1005.3 +20.0 +26.1 3
ЮЗ 2 7000 м дымка {дождь} 10/10 120 м
[St]
+22.5 +22.1 98 +30 +30 очень душно 1011.7 1005.6
Ю 2 10 км дымка 10/10 120 м
[St]
+22.8 +22.1 96 +31 +31 очень душно 1012.0 1005.8
Ю 1 10 км дымка 10/10 120 м
[St]
+22.8 +22.2 96 +31 +31 очень душно 1011.7 1005.7
Ю 2 10 км дымка 10/10 90 м
[St]
+22.5 +22.1 98 +30 +30 очень душно 1011.2 1005.2
Ю 1 5000 м слаб. дождь 10/10 90 м
[St]
+22.8 +22.4 98 +31 +31 очень душно 1011.0 1005.0
ЮЗ 1 5000 м слаб. дождь 10/10 90 м
[St]
+22.8 +22.2 96 +31 +31 очень душно 1010.7 1004.6 0.2
Ю 1 15 км слаб. дождь 10/10 960 м
[Sc]
+22.8 +22.2 96 +31 +31 очень душно 1010.1 1004.1
ЮВ 1 8000 м слаб. дождь 10/10 90 м
[St]
+22.8 +22.2 96 +31 +31 очень душно 1010.1 1004.1
Местоположение метеостанции Ресистенсия (Аргентина): широта -27.45 долгота -59.05 высота над уровнем моря 52 м.
В архиве по умолчанию представлена погода в Ресистенсии за последнюю неделю. Архивные данные за месяц целиком и за предыдущие месяцы, начиная с января 2011 года, Вы можете получить, выбрав интересующий диапазон дат из раскрывающегося списка и нажав кнопку "Найти!".
*Определитесь, кто Вы:
Внимание! Время в таблицах - всемирное. Для получения местного времени необходимо прибавить поправку, которая равна -3 ч.
Некоторые строки с данными для отдельных станций могут быть выделены курсивом. Это означает, что фактические данные отсутствуют по различным причинам, а приведенные значения являются расчетными модельными данными для данного пункта наблюдений.
Смотрите также архив погоды в соседних городах и на ближайших метеорологических станциях:
Партнеры нашего сайта:      
Пояснения к столбцам:
  • Ветер - указаны скорость ветра в м/с - средняя за 10 мин, порывы в срок и между сроками (в фигурных скобках) и направление, откуда дует ветер: С - северный,
  • СВ - северо-восточный, В - восточный, ЮВ - юго-восточный, Ю - южный, ЮЗ - юго-западный, З - западный, СЗ - северо-западный.
  • Видимость - горизонтальная дальность видимости в метрах или километрах. При видимости от 1 до 10 км при отсутствии осадков обычно наблюдается дымка, при ухудшении видимости до 1 км и менее - туман. В сухую погоду видимость может ухудшаться дымом, пылью или мглою.
  • Явления - указаны атмосферные явления, наблюдавшиеся в срок или в последний час перед сроком; фигурными скобками обозначены явления, наблюдавшиеся между сроками (за 1-3 часа до срока); квадратными скобками обозначены град или гололедные отложения с указанием их диаметра в мм.
  • Облачность - указаны через наклонную черту общая и нижняя облачность в баллах и высота нижней границы облаков в метрах; квадратными скобками обозначены формы облаков: Ci - перистые, Cs - перисто-слоистые, Cc - перисто-кучевые, Ac - высококучевые, As - высокослоистые, Sc - слоисто-кучевые, Ns - слоисто-дождевые, Cu - кучевые, Cb - кучево-дождевые. Подробнее классификацию облаков см. в Атласе облаков (PDF).
  • T - Температура воздуха - температура, измеренная на высоте 2 м над землей.
  • Td - Температура точки росы - температура, при понижении до которой содержащийся в воздухе водяной пар достигнет насыщения.
  • f - Относительная влажность воздуха - влажноcть воздуха, измеренная на высоте 2 м над землей.
  • Te - Эффективная температура - температура, которую ощущает одетый по сезону человек в тени. Характеристика душности погоды. При расчете учитывается влияние влажности воздуха и скорости ветра на теплоощущения человека.
  • Tes - Эффективная температура на солнце - температура, которую ощущает человек, с поправкой на солнечный нагрев. Характеристика знойности погоды. Зависит от высоты солнца над горизонтом, облачности и скорости ветра. Ночью, в пасмурную погоду, а также при ветре 12 м/с и более поправка равна нулю.
  • P - Атмосферное давление - приведенное к уровню моря атмосферное давление.
  • Po - Атмосферное давление - измеренное на уровне метеостанции атмосферное давление.
  • Tmin - Минимальная температура - минимум температуры воздуха на высоте 2 м над землей.
  • Tmax - Максимальная температура - максимум температуры воздуха на высоте 2 м над землей.
  • R - Количество осадков - Количество выпавших осадков за период времени, мм. При наведении курсора мыши на число - период времени, за который выпало указанное количество осадков.
  • R24 - Количество осадков - Количество выпавших осадков за 24 часа, мм.
  • S - Снежный покров - Высота снежного покрова, см. При наведении курсора мыши на число - состояние снежного покрова и степень покрытия местности в баллах.